[[{"header":{"parameterUnit":"m.s-1","parameterCategory":1,"la1":30.2992,"la2":30.254,"lo1":-89.0895,"lo2":-89.0443,"dy":0.0025,"dx":0.0025,"nx":19,"ny":19,"refTime":"2026-05-15T09:00:00:Z","depth":0,"parameterNumber":2,"parameterNumberName":"U-component_of_WINDS"},"data":[0,0,0,-3.7292,-3.7294,-3.7359,-3.7359,-3.748,-3.7481,0,0,0,0,0,0,0,0,0,0,0,-3.7296,-3.7297,-3.7292,-3.7294,-3.7359,-3.7359,-3.748,-3.7481,0,0,0,0,0,0,0,0,0,0,0,-3.7295,-3.7297,-3.7299,-3.7295,-3.7359,-3.7359,-3.7479,-3.7417,0,0,0,0,0,0,0,0,0,0,-3.7347,-3.7373,-3.7297,-3.7299,-3.7295,-3.7359,-3.7359,-3.7413,-3.7421,-3.7467,0,-3.7513,0,-3.7499,-3.7492,-3.7492,0,0,0,-3.7278,-3.7367,-3.7364,-3.7299,-3.7296,-3.7359,-3.7325,-3.7417,-3.7426,-3.7477,-3.7514,-3.7518,-3.7501,-3.7493,-3.7494,-3.7811,-3.7813,0,0,-3.7274,-3.732,-3.7358,-3.737,-3.7363,-3.7323,-3.7327,-3.7422,-3.7466,-3.7515,-3.752,-3.7503,-3.7494,-3.7495,-3.7809,-3.7812,0,0,0,-3.7275,-3.7319,-3.7312,-3.7367,-3.7375,-3.7326,-3.733,-3.7462,-3.7456,-3.7521,-3.7505,-3.7495,-3.7497,-3.7806,-3.781,-3.7966,0,0,0,-3.7272,-3.7319,-3.7311,-3.734,-3.7374,-3.742,-3.7369,-3.7449,-3.7458,-3.7504,-3.7495,-3.7498,-3.7804,-3.7808,-3.7956,-3.8033,0,0,0,-3.7284,-3.732,-3.7337,-3.7342,-3.7372,-3.7417,-3.7416,-3.745,-3.745,-3.7492,-3.7499,-3.7802,-3.7807,-3.7948,-3.8018,-3.8129,0,0,0,-3.731,-3.7477,-3.734,-3.752,-3.7372,-3.7513,-3.7414,-3.7518,-3.7573,-3.7496,-3.7804,-3.7809,-3.7945,-3.8009,-3.812,-3.8231,-3.8281,0,0,-3.7546,-3.7507,-3.7608,-3.7488,-3.7665,-3.7499,-3.7699,-3.7707,-3.7669,-3.7766,-3.7773,-3.7959,-3.8017,-3.8127,-3.8547,-3.8587,0,0,0,-3.7699,-3.7772,-3.7809,-3.7863,-3.7872,-3.7886,-3.7858,-3.786,-3.7939,-3.7728,-3.8028,-3.8061,-3.8123,-3.8174,-3.8209,-3.8259,-3.7835,-3.7834,-3.7834,-3.81,-3.8041,-3.8205,-3.8154,-3.8208,-3.8175,-3.8213,-3.8211,-3.8138,-3.8209,-3.8238,-3.85,-3.8561,-3.8586,-3.864,-3.8291,-3.8292,-3.8293,-3.8293,-3.844,-3.8535,-3.843,-3.8552,-3.8488,-3.859,-3.8565,-3.8509,-3.8594,-3.8474,-3.8526,-3.84,-3.8633,-3.8676,-3.8304,-3.8302,-3.8301,-3.83,-3.8299,-3.8697,-3.8732,-3.873,-3.8801,-3.8862,-3.8804,-3.8889,-3.8829,-3.8773,-3.8824,-3.8847,-3.8844,-3.8834,-3.8839,-3.884,-3.8841,-3.8842,-3.8842,-3.8843,-3.8964,-3.8957,-3.9036,-3.9058,-3.9083,-3.9109,-3.9077,-3.91,-3.9111,-3.906,-3.906,-3.8979,-3.8666,-3.8588,-3.8857,-3.8854,-3.8853,-3.8851,-3.885,-3.9332,-3.9238,-3.9361,-3.9386,-3.9404,-3.9468,-3.9389,-3.9442,-3.9452,-3.9497,-3.9403,-3.9182,-3.9138,-3.911,-3.9045,-3.9416,-3.9416,-3.9416,-3.9416,-3.9548,-3.9519,-3.9629,-3.9673,-3.971,-3.9649,-3.9789,-3.9765,-3.9726,-3.9729,-3.9666,-3.9575,-3.955,-3.9521,-3.9484,-3.9423,-3.9881,-3.9881,-3.9882,-3.977,-3.9741,-3.9873,-3.9831,-3.984,-3.985,-3.9979,-4.0034,-3.997,-3.9899,-3.973,-3.971,-3.9562,-3.9517,-3.9445,-3.9389,-3.9275,0,0]},{"header":{"parameterUnit":"m.s-1","parameterCategory":1,"la1":30.2992,"la2":30.254,"lo1":-89.0895,"lo2":-89.0443,"dy":0.0025,"dx":0.0025,"nx":19,"ny":19,"refTime":"2026-05-15T09:00:00:Z","depth":0,"parameterNumber":3,"parameterNumberName":"V-component_of_WINDS"},"data":[0,0,0,0.2134,0.2132,0.2017,0.2017,0.1898,0.1898,0,0,0,0,0,0,0,0,0,0,0,0.2187,0.2187,0.2134,0.2132,0.2017,0.2017,0.1898,0.1898,0,0,0,0,0,0,0,0,0,0,0,0.2187,0.2187,0.2187,0.2132,0.2017,0.2017,0.1899,0.1975,0,0,0,0,0,0,0,0,0,0,0.2081,0.2149,0.2187,0.2187,0.2131,0.2018,0.2016,0.1978,0.197,0.1963,0,0.1963,0,0.1929,0.1892,0.1891,0,0,0,0.2118,0.2156,0.2108,0.2187,0.213,0.2018,0.2065,0.1973,0.1964,0.1953,0.1961,0.1956,0.1927,0.1891,0.1891,0.1904,0.1905,0,0,0.2124,0.2176,0.2114,0.2103,0.2124,0.2069,0.2062,0.1967,0.1979,0.1961,0.1953,0.1925,0.189,0.189,0.1903,0.1904,0,0,0,0.2152,0.2181,0.2135,0.2109,0.2086,0.2066,0.2058,0.1984,0.1964,0.1951,0.1924,0.189,0.1889,0.1902,0.1903,0.1993,0,0,0,0.2155,0.2197,0.2139,0.2169,0.2089,0.2034,0.2077,0.1971,0.1958,0.1924,0.189,0.1888,0.1901,0.1903,0.1989,0.2027,0,0,0,0.2188,0.2201,0.2191,0.2172,0.2125,0.2034,0.2009,0.1967,0.1942,0.1891,0.1888,0.1901,0.1903,0.1985,0.202,0.2047,0,0,0,0.2238,0.2271,0.2194,0.2219,0.2127,0.2091,0.2009,0.1978,0.1945,0.1889,0.1901,0.1903,0.1983,0.2016,0.2043,0.208,0.21,0,0,0.2308,0.2281,0.2292,0.2219,0.2211,0.2104,0.2107,0.2026,0.1972,0.1929,0.1929,0.199,0.202,0.2046,0.2191,0.2208,0,0,0,0.2332,0.2341,0.2327,0.2299,0.2239,0.219,0.2103,0.2073,0.2035,0.1961,0.2004,0.202,0.2034,0.2049,0.2063,0.2071,0.1912,0.1912,0.1912,0.2507,0.2438,0.2451,0.2369,0.2342,0.2253,0.2225,0.2169,0.2105,0.2116,0.2104,0.2201,0.222,0.223,0.224,0.2116,0.2117,0.2117,0.2117,0.2604,0.2606,0.2522,0.2506,0.2433,0.2417,0.2332,0.2288,0.2262,0.2204,0.2212,0.2157,0.2251,0.2255,0.2123,0.2122,0.2121,0.2121,0.212,0.2713,0.2702,0.2666,0.2619,0.259,0.2503,0.2484,0.2416,0.2352,0.236,0.234,0.2339,0.233,0.2355,0.2356,0.2356,0.2356,0.2356,0.2357,0.284,0.2796,0.2789,0.2729,0.2703,0.2659,0.257,0.2541,0.2492,0.2444,0.2444,0.2381,0.2272,0.2248,0.2362,0.2361,0.236,0.236,0.2359,0.2968,0.2928,0.2917,0.2891,0.2815,0.2792,0.2705,0.2654,0.262,0.2612,0.2546,0.2477,0.2444,0.2432,0.2412,0.2561,0.2561,0.2561,0.2561,0.3061,0.3037,0.3011,0.2974,0.2929,0.2851,0.284,0.2771,0.2692,0.2667,0.2635,0.2601,0.2592,0.2564,0.255,0.2529,0.2705,0.2705,0.2705,0.3136,0.3105,0.311,0.3035,0.297,0.2916,0.2904,0.2864,0.2766,0.271,0.2646,0.264,0.2584,0.2569,0.2514,0.2493,0.2454,0,0]}]]